Location: Guferjoch
(46.7462°N, 8.4506°E)
Time: 13:18:50
(UTC+00:00)

Cosmos 2082 Rocket - Pass Details

Date: 14 July 2020
Orbit: 833 x 853 km, 71.0° (Epoch: 06 August)

Event Time Altitude Azimuth Distance (km) Brightness Sun altitude
Exits shadow 00:40:47 13° 137° (SE) 2,253 4.1 -19.9°
Maximum altitude 00:43:52 20° 100° (E) 1,876 4.1 -19.7°
Drops below altitude 10° 00:47:52 10° 55° (NE) 2,488 5.4 -19.5°
Sets 00:50:56 0° 39° (NE) 3,427 6.7 -19.3°
